Time,TemperatureF,DewpointF,PressureIn,WindDirection,WindDirectionDegrees,WindSpeedMPH,WindSpeedGustMPH,Humidity,HourlyPrecipIn,Conditions,Clouds,dailyrainin,SoftwareType,DateUTC
2013-02-19 00:00:00,47.1,31.8,29.99,SW,231,4.0,10.0,55,0.00,,,-99.99,Weather View 32 v60,2013-02-19 08:00:00,
2013-02-19 00:10:00,47.1,31.8,29.99,SW,224,0.0,10.0,55,0.00,,,-99.99,Weather View 32 v60,2013-02-19 08:10:00,
2013-02-19 00:19:00,47.1,31.8,29.99,SW,224,0.0,10.0,55,0.00,,,-99.99,Weather View 32 v60,2013-02-19 08:19:00,
2013-02-19 00:30:00,46.6,31.7,29.99,WSW,243,0.0,10.0,56,0.00,,,-99.99,Weather View 32 v60,2013-02-19 08:30:00,
2013-02-19 00:39:00,46.4,31.5,29.99,SSW,203,0.0,10.0,56,0.00,,,-99.99,Weather View 32 v60,2013-02-19 08:39:00,
2013-02-19 00:49:00,46.4,31.5,29.99,North,0,0.0,10.0,56,0.00,,,-99.99,Weather View 32 v60,2013-02-19 08:49:00,
2013-02-19 00:59:00,46.6,31.7,29.99,NE,37,0.0,10.0,56,0.00,,,-99.99,Weather View 32 v60,2013-02-19 08:59:00,
2013-02-19 01:09:00,46.6,31.7,29.99,WSW,241,0.0,10.0,56,0.00,,,-99.99,Weather View 32 v60,2013-02-19 09:09:00,
2013-02-19 01:19:00,46.6,31.7,29.99,WSW,241,0.0,10.0,56,0.00,,,-99.99,Weather View 32 v60,2013-02-19 09:19:00,
2013-02-19 01:29:00,46.6,33.0,29.99,SSW,204,0.0,5.0,59,0.00,,,-99.99,Weather View 32 v60,2013-02-19 09:29:00,
2013-02-19 01:39:00,46.8,33.6,29.99,WSW,237,0.0,4.0,60,0.00,,,-99.99,Weather View 32 v60,2013-02-19 09:39:00,
2013-02-19 01:49:00,46.8,33.6,29.99,WSW,258,0.0,4.0,60,0.00,,,-99.99,Weather View 32 v60,2013-02-19 09:49:00,
2013-02-19 01:59:00,46.8,35.2,29.99,WSW,247,0.0,4.0,64,0.00,,,-99.99,Weather View 32 v60,2013-02-19 09:59:00,
2013-02-19 02:09:00,46.8,35.2,29.99,SW,221,0.0,5.0,64,0.00,,,-99.99,Weather View 32 v60,2013-02-19 10:09:00,
2013-02-19 02:20:00,46.8,35.2,29.96,SSE,165,0.0,11.0,64,0.00,,,-99.99,Weather View 32 v60,2013-02-19 10:20:00,
2013-02-19 02:29:00,46.6,36.2,29.96,West,263,0.0,11.0,67,0.00,,,-99.99,Weather View 32 v60,2013-02-19 10:29:00,
2013-02-19 02:39:00,46.0,36.4,29.96,SW,236,0.0,11.0,69,0.00,,,-99.99,Weather View 32 v60,2013-02-19 10:39:00,
2013-02-19 02:49:00,45.7,36.8,29.96,SW,216,0.0,11.0,71,0.00,,,-99.99,Weather View 32 v60,2013-02-19 10:49:00,
2013-02-19 02:59:00,45.7,37.2,29.96,WSW,240,0.0,11.0,72,0.00,,,-99.99,Weather View 32 v60,2013-02-19 10:59:00,
2013-02-19 03:09:00,45.7,37.5,29.96,SW,229,0.0,11.0,73,0.00,,,-99.99,Weather View 32 v60,2013-02-19 11:09:00,
2013-02-19 03:19:00,45.5,37.3,29.96,SSW,198,0.0,7.0,73,0.00,,,-99.99,Weather View 32 v60,2013-02-19 11:19:00,
2013-02-19 03:29:00,45.5,37.3,29.96,WSW,247,0.0,7.0,73,0.00,,,-99.99,Weather View 32 v60,2013-02-19 11:29:00,
2013-02-19 03:39:00,45.5,37.3,29.96,West,261,0.0,0.0,73,0.00,,,-99.99,Weather View 32 v60,2013-02-19 11:39:00,
2013-02-19 03:49:00,45.3,37.2,29.93,West,261,0.0,0.0,73,0.00,,,-99.99,Weather View 32 v60,2013-02-19 11:49:00,
2013-02-19 03:59:00,45.1,37.0,29.93,West,260,0.0,0.0,73,0.00,,,-99.99,Weather View 32 v60,2013-02-19 11:59:00,
2013-02-19 04:09:00,45.0,37.2,29.93,SW,219,0.0,3.0,74,0.00,,,-99.99,Weather View 32 v60,2013-02-19 12:09:00,
2013-02-19 04:19:00,44.8,37.3,29.93,WSW,248,0.0,4.0,75,0.00,,,-99.99,Weather View 32 v60,2013-02-19 12:19:00,
2013-02-19 04:29:00,45.1,37.7,29.93,WSW,251,0.0,4.0,75,0.00,,,-99.99,Weather View 32 v60,2013-02-19 12:29:00,
2013-02-19 04:39:00,45.3,38.2,29.93,SW,220,0.0,4.0,76,0.00,,,-99.99,Weather View 32 v60,2013-02-19 12:39:00,
2013-02-19 04:49:00,45.0,38.2,29.93,SE,138,0.0,4.0,77,0.00,,,-99.99,Weather View 32 v60,2013-02-19 12:49:00,
2013-02-19 05:00:00,44.8,38.3,29.93,SSE,159,0.0,4.0,78,0.00,,,-99.99,Weather View 32 v60,2013-02-19 13:00:00,
2013-02-19 05:10:00,44.8,38.7,29.93,SE,138,0.0,4.0,79,0.00,,,-99.99,Weather View 32 v60,2013-02-19 13:10:00,
2013-02-19 05:20:00,44.8,39.3,29.93,SE,143,0.0,3.0,81,0.00,,,-99.99,Weather View 32 v60,2013-02-19 13:20:00,
2013-02-19 05:29:00,44.8,39.6,29.93,SE,130,0.0,3.0,82,0.00,,,-99.99,Weather View 32 v60,2013-02-19 13:29:00,
2013-02-19 05:39:00,44.6,39.8,29.93,SE,133,0.0,3.0,83,0.00,,,-99.99,Weather View 32 v60,2013-02-19 13:39:00,
2013-02-19 05:49:00,44.6,40.1,29.93,SSW,198,0.0,4.0,84,0.00,,,-99.99,Weather View 32 v60,2013-02-19 13:49:00,
2013-02-19 05:59:00,44.2,40.0,29.93,SE,141,0.0,4.0,85,0.00,,,-99.99,Weather View 32 v60,2013-02-19 13:59:00,
2013-02-19 06:09:00,44.1,39.8,29.93,ESE,120,0.0,4.0,85,0.00,,,-99.99,Weather View 32 v60,2013-02-19 14:09:00,
2013-02-19 06:19:00,44.1,39.5,29.90,SSW,208,0.0,4.0,84,0.00,,,-99.99,Weather View 32 v60,2013-02-19 14:19:00,
2013-02-19 06:29:00,44.6,38.8,29.90,South,184,0.0,4.0,80,0.00,,,-99.99,Weather View 32 v60,2013-02-19 14:29:00,
2013-02-19 06:39:00,45.1,38.0,29.90,SE,131,0.0,4.0,76,0.00,,,-99.99,Weather View 32 v60,2013-02-19 14:39:00,
2013-02-19 06:49:00,45.3,37.9,29.90,South,189,0.0,7.0,75,0.00,,,-99.99,Weather View 32 v60,2013-02-19 14:49:00,
2013-02-19 06:59:00,45.3,38.2,29.90,SSE,165,4.0,7.0,76,0.00,,,-99.99,Weather View 32 v60,2013-02-19 14:59:00,
2013-02-19 07:09:00,45.3,38.5,29.90,SSW,202,0.0,7.0,77,0.00,,,-99.99,Weather View 32 v60,2013-02-19 15:09:00,
2013-02-19 07:19:00,45.3,39.2,29.90,SSW,194,0.0,7.0,79,0.00,,,-99.99,Weather View 32 v60,2013-02-19 15:19:00,
2013-02-19 07:29:00,45.1,39.7,29.90,SSW,192,0.0,7.0,81,0.00,,,-99.99,Weather View 32 v60,2013-02-19 15:29:00,
2013-02-19 07:39:00,45.1,40.0,29.90,SW,225,0.0,7.0,82,0.00,,,-99.99,Weather View 32 v60,2013-02-19 15:39:00,
2013-02-19 07:49:00,45.1,40.0,29.90,SSW,198,0.0,6.0,82,0.00,,,-99.99,Weather View 32 v60,2013-02-19 15:49:00,
2013-02-19 07:59:00,45.3,40.5,29.90,SE,135,0.0,6.0,83,0.00,,,-99.99,Weather View 32 v60,2013-02-19 15:59:00,
2013-02-19 08:09:00,45.3,40.8,29.90,SE,125,0.0,6.0,84,0.00,,,-99.99,Weather View 32 v60,2013-02-19 16:09:00,
2013-02-19 08:19:00,45.7,40.8,29.87,SSE,155,0.0,7.0,83,0.00,,,-99.99,Weather View 32 v60,2013-02-19 16:19:00,
2013-02-19 08:29:00,46.2,40.1,29.87,SSE,152,0.0,7.0,79,0.00,,,-99.99,Weather View 32 v60,2013-02-19 16:29:00,
2013-02-19 08:39:00,46.8,38.9,29.87,SW,225,0.0,7.0,74,0.00,,,-99.99,Weather View 32 v60,2013-02-19 16:39:00,
2013-02-19 08:49:00,47.3,38.4,29.87,SSW,204,0.0,7.0,71,0.00,,,-99.99,Weather View 32 v60,2013-02-19 16:49:00,
2013-02-19 08:59:00,47.8,38.5,29.87,ESE,123,0.0,7.0,70,0.00,,,-99.99,Weather View 32 v60,2013-02-19 16:59:00,
2013-02-19 09:09:00,48.7,39.0,29.87,SW,216,0.0,7.0,69,0.00,,,-99.99,Weather View 32 v60,2013-02-19 17:09:00,
2013-02-19 09:19:00,49.3,38.8,29.84,SW,220,0.0,10.0,67,0.00,,,-99.99,Weather View 32 v60,2013-02-19 17:19:00,
2013-02-19 09:30:00,49.3,38.0,29.84,SW,226,0.0,10.0,65,0.00,,,-99.99,Weather View 32 v60,2013-02-19 17:30:00,
2013-02-19 09:39:00,49.6,38.3,29.84,South,183,0.0,10.0,65,0.00,,,-99.99,Weather View 32 v60,2013-02-19 17:39:00,
2013-02-19 09:49:00,49.6,38.3,29.84,SW,216,0.0,10.0,65,0.00,,,-99.99,Weather View 32 v60,2013-02-19 17:49:00,
2013-02-19 09:59:00,50.2,39.2,29.84,East,94,4.0,10.0,66,0.00,,,-99.99,Weather View 32 v60,2013-02-19 17:59:00,
2013-02-19 10:10:00,49.3,38.8,29.84,SSW,209,0.0,10.0,67,0.00,,,-99.99,Weather View 32 v60,2013-02-19 18:10:00,
2013-02-19 10:19:00,48.2,40.3,29.84,SW,215,0.0,10.0,74,0.00,,,-99.99,Weather View 32 v60,2013-02-19 18:19:00,
2013-02-19 10:29:00,47.7,40.8,29.84,South,190,0.0,10.0,77,0.04,,,-99.99,Weather View 32 v60,2013-02-19 18:29:00,
2013-02-19 11:20:00,43.7,40.4,29.84,SW,223,0.0,12.0,88,0.24,,,-99.99,Weather View 32 v60,2013-02-19 19:20:00,
2013-02-19 12:00:00,44.4,39.9,29.84,NNW,331,0.0,12.0,84,0.12,,,-99.99,Weather View 32 v60,2013-02-19 20:00:00,
2013-02-19 12:10:00,44.6,39.4,29.84,NNW,327,0.0,10.0,82,0.12,,,-99.99,Weather View 32 v60,2013-02-19 20:10:00,
2013-02-19 12:19:00,45.1,40.0,29.84,NNW,327,0.0,7.0,82,0.04,,,-99.99,Weather View 32 v60,2013-02-19 20:19:00,
2013-02-19 12:25:00,45.1,40.0,29.84,NNW,327,0.0,7.0,82,0.04,,,-99.99,Weather View 32 v60,2013-02-19 20:25:00,
2013-02-19 12:39:00,47.5,41.0,29.81,NNW,330,0.0,7.0,78,0.00,,,-99.99,Weather View 32 v60,2013-02-19 20:39:00,
2013-02-19 12:49:00,48.6,41.7,29.81,SE,137,0.0,7.0,77,0.00,,,-99.99,Weather View 32 v60,2013-02-19 20:49:00,
2013-02-19 13:00:00,47.7,40.1,29.81,SW,233,0.0,4.0,75,0.00,,,-99.99,Weather View 32 v60,2013-02-19 21:00:00,
2013-02-19 13:09:00,46.4,39.2,29.81,NW,305,0.0,6.0,76,0.04,,,-99.99,Weather View 32 v60,2013-02-19 21:09:00,
2013-02-19 13:19:00,43.0,34.9,29.84,WNW,302,0.0,9.0,73,0.04,,,-99.99,Weather View 32 v60,2013-02-19 21:19:00,
2013-02-19 13:26:00,43.0,34.9,29.84,WNW,302,0.0,9.0,73,0.04,,,-99.99,Weather View 32 v60,2013-02-19 21:26:00,
2013-02-19 13:40:00,42.8,37.7,29.81,NW,310,0.0,9.0,82,0.08,,,-99.99,Weather View 32 v60,2013-02-19 21:40:00,
2013-02-19 13:50:00,43.0,37.9,29.81,WNW,301,0.0,9.0,82,0.08,,,-99.99,Weather View 32 v60,2013-02-19 21:50:00,
2013-02-19 14:00:00,43.0,37.5,29.81,WNW,286,0.0,9.0,81,0.08,,,-99.99,Weather View 32 v60,2013-02-19 22:00:00,
2013-02-19 14:09:00,43.5,37.8,29.81,WSW,243,0.0,9.0,80,0.04,,,-99.99,Weather View 32 v60,2013-02-19 22:09:00,
2013-02-19 14:19:00,46.4,40.6,29.81,SW,227,0.0,8.0,80,0.04,,,-99.99,Weather View 32 v60,2013-02-19 22:19:00,
2013-02-19 14:26:00,46.4,40.6,29.81,SW,227,0.0,8.0,80,0.04,,,-99.99,Weather View 32 v60,2013-02-19 22:26:00,
2013-02-19 14:30:00,49.5,41.5,29.81,SW,220,0.0,8.0,74,0.00,,,-99.99,Weather View 32 v60,2013-02-19 22:30:00,
2013-02-19 14:50:00,51.4,40.4,29.79,SE,136,0.0,6.0,66,0.00,,,-99.99,Weather View 32 v60,2013-02-19 22:50:00,
2013-02-19 14:59:00,51.4,40.4,29.79,SE,136,0.0,6.0,66,0.00,,,-99.99,Weather View 32 v60,2013-02-19 22:59:00,
2013-02-19 15:09:00,52.5,37.2,29.79,SW,219,0.0,7.0,56,0.00,,,-99.99,Weather View 32 v60,2013-02-19 23:09:00,
2013-02-19 15:19:00,52.5,37.7,29.79,SW,215,5.0,8.0,57,0.00,,,-99.99,Weather View 32 v60,2013-02-19 23:19:00,
2013-02-19 15:29:00,52.2,35.5,29.79,SSW,198,0.0,12.0,53,0.00,,,-99.99,Weather View 32 v60,2013-02-19 23:29:00,
2013-02-19 15:50:00,50.7,35.6,29.79,SW,217,0.0,12.0,56,0.00,,,-99.99,Weather View 32 v60,2013-02-19 23:50:00,
2013-02-19 16:00:00,50.5,32.1,29.79,NNW,334,0.0,13.0,49,0.00,,,-99.99,Weather View 32 v60,2013-02-20 00:00:00,
2013-02-19 16:10:00,50.7,31.2,29.76,WSW,258,0.0,13.0,47,0.00,,,-99.99,Weather View 32 v60,2013-02-20 00:10:00,
2013-02-19 16:20:00,49.1,29.7,29.79,West,263,0.0,14.0,47,0.00,,,-99.99,Weather View 32 v60,2013-02-20 00:20:00,
2013-02-19 16:39:00,47.7,31.8,29.79,SW,223,0.0,14.0,54,0.00,,,-99.99,Weather View 32 v60,2013-02-20 00:39:00,
2013-02-19 16:49:00,46.8,34.0,29.76,SW,224,0.0,14.0,61,0.00,,,-99.99,Weather View 32 v60,2013-02-20 00:49:00,
2013-02-19 17:00:00,47.1,32.2,29.76,WSW,246,0.0,14.0,56,0.00,,,-99.99,Weather View 32 v60,2013-02-20 01:00:00,
2013-02-19 17:09:00,47.1,32.2,29.76,NW,309,0.0,14.0,56,0.00,,,-99.99,Weather View 32 v60,2013-02-20 01:09:00,
2013-02-19 17:19:00,46.9,31.6,29.76,WSW,256,0.0,10.0,55,0.00,,,-99.99,Weather View 32 v60,2013-02-20 01:19:00,
2013-02-19 17:29:00,46.8,31.9,29.76,SW,231,0.0,7.0,56,0.00,,,-99.99,Weather View 32 v60,2013-02-20 01:29:00,
2013-02-19 17:39:00,45.5,29.8,29.76,NW,309,0.0,7.0,54,0.00,,,-99.99,Weather View 32 v60,2013-02-20 01:39:00,
2013-02-19 17:49:00,44.6,30.3,29.76,West,277,0.0,7.0,57,0.00,,,-99.99,Weather View 32 v60,2013-02-20 01:49:00,
2013-02-19 17:59:00,43.9,30.0,29.76,NW,319,0.0,7.0,58,0.00,,,-99.99,Weather View 32 v60,2013-02-20 01:59:00,
2013-02-19 18:09:00,43.3,30.4,29.76,WNW,295,0.0,7.0,60,0.00,,,-99.99,Weather View 32 v60,2013-02-20 02:09:00,
2013-02-19 18:19:00,42.8,30.3,29.76,WNW,295,0.0,7.0,61,0.00,,,-99.99,Weather View 32 v60,2013-02-20 02:19:00,
2013-02-19 18:29:00,42.4,30.7,29.76,WNW,300,0.0,7.0,63,0.00,,,-99.99,Weather View 32 v60,2013-02-20 02:29:00,
2013-02-19 18:39:00,41.9,31.0,29.79,WNW,300,0.0,5.0,65,0.00,,,-99.99,Weather View 32 v60,2013-02-20 02:39:00,
2013-02-19 18:49:00,41.4,31.2,29.79,WNW,301,0.0,0.0,67,0.00,,,-99.99,Weather View 32 v60,2013-02-20 02:49:00,
2013-02-19 18:59:00,40.6,30.9,29.79,WNW,301,0.0,0.0,68,0.00,,,-99.99,Weather View 32 v60,2013-02-20 02:59:00,
2013-02-19 19:09:00,40.5,31.8,29.79,WNW,301,0.0,0.0,71,0.00,,,-99.99,Weather View 32 v60,2013-02-20 03:09:00,
2013-02-19 19:19:00,40.6,32.7,29.79,North,356,0.0,0.0,73,0.00,,,-99.99,Weather View 32 v60,2013-02-20 03:19:00,
2013-02-19 19:29:00,40.5,31.8,29.79,WNW,300,0.0,0.0,71,0.00,,,-99.99,Weather View 32 v60,2013-02-20 03:29:00,
2013-02-19 19:39:00,40.6,31.6,29.79,WNW,299,0.0,4.0,70,0.00,,,-99.99,Weather View 32 v60,2013-02-20 03:39:00,
2013-02-19 19:49:00,40.5,31.4,29.79,NW,316,0.0,4.0,70,0.00,,,-99.99,Weather View 32 v60,2013-02-20 03:49:00,
2013-02-19 19:59:00,40.3,30.9,29.79,NNW,336,0.0,4.0,69,0.00,,,-99.99,Weather View 32 v60,2013-02-20 03:59:00,
2013-02-19 20:09:00,39.9,31.3,29.79,NW,324,0.0,4.0,71,0.00,,,-99.99,Weather View 32 v60,2013-02-20 04:09:00,
2013-02-19 20:19:00,39.9,31.6,29.79,NW,305,0.0,4.0,72,0.00,,,-99.99,Weather View 32 v60,2013-02-20 04:19:00,
2013-02-19 20:29:00,39.9,31.6,29.79,NNW,341,0.0,5.0,72,0.00,,,-99.99,Weather View 32 v60,2013-02-20 04:29:00,
2013-02-19 20:39:00,39.9,31.3,29.79,NW,319,0.0,5.0,71,0.00,,,-99.99,Weather View 32 v60,2013-02-20 04:39:00,
2013-02-19 20:49:00,39.7,31.4,29.79,NW,306,0.0,5.0,72,0.00,,,-99.99,Weather View 32 v60,2013-02-20 04:49:00,
2013-02-19 20:59:00,39.4,31.1,29.79,NNW,347,0.0,5.0,72,0.00,,,-99.99,Weather View 32 v60,2013-02-20 04:59:00,
2013-02-19 21:02:00,39.4,31.1,29.79,NNW,347,0.0,5.0,72,0.00,,,-99.99,Weather View 32 v60,2013-02-20 05:02:00,
2013-02-19 21:09:00,39.2,30.9,29.81,NW,317,0.0,5.0,72,0.00,,,-99.99,Weather View 32 v60,2013-02-20 05:09:00,
2013-02-19 21:19:00,39.0,31.1,29.81,NW,320,0.0,5.0,73,0.00,,,-99.99,Weather View 32 v60,2013-02-20 05:19:00,
2013-02-19 21:29:00,38.8,31.3,29.81,NNW,332,0.0,5.0,74,0.00,,,-99.99,Weather View 32 v60,2013-02-20 05:29:00,
2013-02-19 21:39:00,38.7,31.1,29.81,WNW,298,0.0,0.0,74,0.00,,,-99.99,Weather View 32 v60,2013-02-20 05:39:00,
2013-02-19 21:49:00,38.7,31.4,29.81,North,351,0.0,0.0,75,0.00,,,-99.99,Weather View 32 v60,2013-02-20 05:49:00,
2013-02-19 21:59:00,38.7,31.4,29.81,NW,304,0.0,0.0,75,0.00,,,-99.99,Weather View 32 v60,2013-02-20 05:59:00,
2013-02-19 22:09:00,38.3,31.4,29.81,NW,305,0.0,0.0,76,0.00,,,-99.99,Weather View 32 v60,2013-02-20 06:09:00,
2013-02-19 22:19:00,37.9,31.4,29.81,NW,304,0.0,0.0,77,0.00,,,-99.99,Weather View 32 v60,2013-02-20 06:19:00,
2013-02-19 22:29:00,38.1,32.5,29.81,West,264,0.0,0.0,80,0.00,,,-99.99,Weather View 32 v60,2013-02-20 06:29:00,
2013-02-19 22:39:00,37.8,31.8,29.81,West,265,0.0,0.0,79,0.00,,,-99.99,Weather View 32 v60,2013-02-20 06:39:00,
2013-02-19 22:49:00,37.4,31.2,29.81,West,264,0.0,0.0,78,0.00,,,-99.99,Weather View 32 v60,2013-02-20 06:49:00,
2013-02-19 22:59:00,37.0,31.1,29.81,West,264,0.0,0.0,79,0.00,,,-99.99,Weather View 32 v60,2013-02-20 06:59:00,
2013-02-19 23:09:00,37.0,31.1,29.81,West,265,0.0,0.0,79,0.00,,,-99.99,Weather View 32 v60,2013-02-20 07:09:00,
2013-02-19 23:19:00,37.0,31.7,29.84,West,264,0.0,0.0,81,0.00,,,-99.99,Weather View 32 v60,2013-02-20 07:19:00,
2013-02-19 23:29:00,37.0,31.7,29.84,West,264,0.0,0.0,81,0.00,,,-99.99,Weather View 32 v60,2013-02-20 07:29:00,
2013-02-19 23:39:00,36.9,31.9,29.84,West,264,0.0,0.0,82,0.00,,,-99.99,Weather View 32 v60,2013-02-20 07:39:00,
2013-02-19 23:49:00,36.9,31.9,29.84,West,264,0.0,0.0,82,0.00,,,-99.99,Weather View 32 v60,2013-02-20 07:49:00,
2013-02-19 23:59:00,37.2,32.5,29.84,West,264,0.0,0.0,83,0.00,,,-99.99,Weather View 32 v60,2013-02-20 07:59:00,